This is the latest recevied weather packets stored in our database for station/object KD7CIH. If no packets are shown the sender has not sent any weather packets the latest 10 day(s).
| Time | Temp. | Humidity | Pressure | Rain* | Wind** | Luminosity | Snow |
|---|---|---|---|---|---|---|---|
| 1788644160 | 27.78° C | 20% | 1014.2 hPa | 0 mm | - | - | - |
| 1788643727 | 27.22° C | 20% | 1014.2 hPa | 0 mm | - | - | - |
| 1788643548 | 27.22° C | 20% | 1014.3 hPa | 0 mm | - | - | - |
| 1788643114 | 27.22° C | 19% | 1014.3 hPa | 0 mm | - | - | - |
| 1788642814 | 26.67° C | 20% | 1014.2 hPa | 0 mm | - | - | - |
| 1788642513 | 27.22° C | 21% | 1014.3 hPa | 0 mm | - | - | - |
| 1788642215 | 27.22° C | 21% | 1014.5 hPa | 0 mm | - | - | - |
| 1788642041 | 27.22° C | 21% | 1014.6 hPa | 0 mm | - | - | - |
| 1788641613 | 27.22° C | 21% | 1014.6 hPa | 0 mm | - | - | - |
| 1788641440 | 26.67° C | 22% | 1014.6 hPa | 0 mm | - | - | - |
| 1788641014 | 26.67° C | 22% | 1014.6 hPa | 0 mm | - | - | - |
| 1788640715 | 26.67° C | 21% | 1014.7 hPa | 0 mm | - | - | - |
| 1788640543 | 26.67° C | 22% | 1014.7 hPa | 0 mm | - | - | - |
| 1788640113 | 26.67° C | 22% | 1014.7 hPa | 0 mm | - | - | - |
| 1788639941 | 26.67° C | 23% | 1014.8 hPa | 0 mm | - | - | - |
| 1788639515 | 26.67° C | 22% | 1014.8 hPa | 0 mm | - | - | - |
| 1788639214 | 26.67° C | 22% | 1015.1 hPa | 0 mm | - | - | - |
| 1788639040 | 26.67° C | 22% | 1015.1 hPa | 0 mm | - | - | - |
| 1788638615 | 26.67° C | 22% | 1014.9 hPa | 0 mm | - | - | - |
| 1788638314 | 26.67° C | 23% | 1015.1 hPa | 0 mm | - | - | - |
| 1788637832 | 26.11° C | 23% | 1015.2 hPa | 0 mm | - | - | - |
| 1788637398 | 26.67° C | 22% | 1015.2 hPa | 0 mm | - | - | - |
| 1788637094 | 26.11° C | 22% | 1015.1 hPa | 0 mm | - | - | - |
| 1788636795 | 26.11° C | 23% | 1015.2 hPa | 0 mm | - | - | - |
| 1788636496 | 25.56° C | 23% | 1015.2 hPa | 0 mm | - | - | - |
* Rain latest hour (hover to see other rain measurements)
** Current wind speed in m/s (hover to see current wind gust speed)